Regional Weather Roundup
Issued by NWS

Home | Current Version | Previous Version | Graphics & Text | Print | Product List | Glossary On
Versions: 1 2 3 4 5 6 7 8 9 10 11 12 13 14 15 16 17 18 19 20 21 22 23 24 25 26 27
000
ASUS45 KTFX 272110
RWRMT
MONTANA REGIONAL WEATHER ROUNDUP
NATIONAL WEATHER SERVICE GREAT FALLS MT
200 PM MST MON FEB 27 2017

NOTE: "FAIR" INDICATES FEW OR NO CLOUDS BELOW 12000 FEET WITH NO
SIGNIFICANT WEATHER AND/OR OBSTRUCTIONS TO VISIBILITY.

MTZ001>007-043-272200-
WEST OF THE DIVIDE

CITY           SKY/WX    TMP DP  RH WIND       PRES   REMARKS
KALISPELL      CLOUDY    23  17  78 S6        29.59F WCI  16
MISSOULA       PTSUNNY   30  25  81 CALM      29.59F
BUTTE          CLOUDY    29   8  41 W9G16     29.47F WCI  20
MULLAN PASS    LGT SNOW  18  14  84 VRB5      29.45F VSB 3/4
ANACONDA         N/A     28  16  59 W13G20    29.50S WCI  18
DEER LODGE       N/A     28  19  69 NW15      29.53S WCI  17
EUREKA           N/A     28  18  64 CALM      29.58F
HAMILTON         N/A     34  16  47 NW6       29.56S WCI  29
LIBBY            N/A     27  21  80 CALM      29.57F
$$

MTZ008-052>055-272200-
SOUTHWEST MONTANA

CITY           SKY/WX    TMP DP  RH WIND       PRES   REMARKS
BOZEMAN        CLOUDY    27  16  63 SE6       29.53F WCI  20
DILLON         CLOUDY    31   8  38 SW16G26   29.49F WCI  20
W YELLOWSTONE  SNOW      19  16  86 SW9G24    29.50F VSB 1/2 WCI   9
ENNIS          PTSUNNY   30   9  40 S15G23    29.55R WCI  19
THREE FORKS      N/A     32  32 100 CALM      29.57F
TWIN BRIDGES     N/A     30   6  36 CALM      29.57F
$$

MTZ009-010-012-014-046-048-049-054-272200-
EAST SLOPES AND CENTRAL MONTANA

CITY           SKY/WX    TMP DP  RH WIND       PRES   REMARKS
CUT BANK       PTSUNNY   16  11  80 S10       29.52F WCI   4
GREAT FALLS    SUNNY     22  12  65 E6        29.53F WCI  14
MALMSTROM AFB  SUNNY     17  13  82 E6        29.55F WCI   9
HELENA         SUNNY     22  13  68 CALM      29.55F
AUGUSTA          N/A     20  15  82 SE7       29.48F WCI  11
BOWMANS CRNR     N/A     25  15  66 S15       29.46F WCI  13
CHOTEAU          N/A     19  12  73 VRB3      29.54S
CONRAD           N/A     19  12  74 E8        29.61S WCI   9
POWER            N/A     19  12  74 SE6       29.52F WCI  11
RAYNESFORD     PTSUNNY   18  11  75 SE13      29.52F WCI   4
ULM              N/A     21  12  70 MISG      29.53F
$$

MTZ011-013-016-021-045-047-050-051-272200-
NORTH CENTRAL MONTANA

CITY           SKY/WX    TMP DP  RH WIND       PRES   REMARKS
HAVRE          SUNNY     24  10  55 CALM      29.63F
LEWISTOWN      CLOUDY    21  14  74 SE10      29.54F WCI  10
N BAR RANCH      N/A     14   9  79 E8        29.57F WCI   3
CHINOOK          N/A     21  12  68 E15       29.66F WCI   8
DENTON           N/A     21  13  71 NE16      29.54F WCI   7
FORT BENTON      N/A     27  12  54 N9        29.61F WCI  17
GEYSER           N/A     15  10  81 CALM      29.53F
GRASS RANGE      N/A     17  13  84 E7        29.55F WCI   8
JUDITH GAP     PTSUNNY   15  10  80 S13       29.53F WCI   1
ROY            FLURRIES  17  14  90 MISG      29.58F
STANFORD         N/A     16  11  82 CALM      29.51F
WINIFRED         N/A     18  14  83 E13       29.56F WCI   5
$$

MTZ017>020-022>027-061-062-272200-
NORTHEAST MONTANA

CITY           SKY/WX    TMP DP  RH WIND       PRES   REMARKS
GLASGOW        MOSUNNY   19  11  70 E13       29.73F WCI   6
JORDAN           N/A     21  15  78 E12       29.68F WCI   9
SIDNEY         FLURRIES  20  13  74 NE12      29.78F WCI   8
WOLF POINT     SUNNY     17   8  67 E13       29.78F WCI   4
POPLAR           N/A     14   7  73 NE12      29.79F WCI   0
SCOBEY           N/A     17   1  49 CALM      29.74F
$$

MTZ028>42-056>058-272200-
SOUTHCENTRAL AND SOUTHEAST MONTANA

CITY           SKY/WX    TMP DP  RH WIND       PRES   REMARKS
BAKER          MOSUNNY   30  21  69 E10       29.65R WCI  21
BILLINGS       MOSUNNY   26  15  63 E6        29.60F WCI  19
LIVINGSTON     CLOUDY    27  17  66 E7        29.50F WCI  19
MILES CITY     CLOUDY    26  16  65 VRB3      29.67F
BIG TIMBER     SUNNY     27  19  74 SE6       29.55F WCI  20
EKALAKA          N/A     34  16  48 W7        29.62F WCI  28
HARLOWTON      PTSUNNY   18  14  83 N3        29.56F
LAUREL           N/A     26  12  55 N5        29.62S
$$

REGIONAL REPORTS...DAKOTAS

CITY           SKY/WX    TMP DP  RH WIND       PRES   REMARKS
WILLISTON      CLOUDY    15   7  70 NE10      29.81F WCI   2
MINOT          LGT SNOW  14   8  77 N9        29.83R WCI   2
DICKINSON      LGT SNOW  16  12  84 NE17      29.70R FOG     WCI   0
BEACH            N/A    N/A N/A N/A MISG        N/A
CROSBY           N/A     10   1  67 E3        29.84F
TIOGA            N/A     12   9  85 E7        29.80S WCI   2
WATFORD CITY   CLOUDY    14   9  79 NE12      29.79S WCI   0
BISMARCK       CLOUDY    23  17  78 NE16      29.77F WCI  10
GRAND FORKS    CLOUDY    28  14  55 N7        29.86F WCI  21
FARGO          CLOUDY    33  23  66 NE10      29.81F WCI  25
BUFFALO SD       N/A     36  20  52 E8        29.57R WCI  30
RAPID CITY     CLOUDY    45  24  43 N10       29.56F
$$

REGIONAL REPORTS...WYOMING/IDAHO/WASHINGTON

CITY           SKY/WX    TMP DP  RH WIND       PRES   REMARKS
GILLETTE       CLOUDY    38   8  29 NE8       29.54F
SHERIDAN       CLOUDY    31  17  56 SE7       29.57F WCI  24
BUFFALO WY     CLOUDY    31  11  43 CALM      29.55F
CODY           CLOUDY    33  13  43 SE15      29.50F WCI  23
YELLOWSTONE LA   N/A     16  12  84 W8        29.48S WCI   5
IDAHO FALLS    SNOW      22  21  96 W7        29.62R VSB 1/2 WCI  13
SALMON         CLOUDY    28  16  59 CALM      29.58F
BOISE          CLOUDY    34  21  59 CALM      29.76F
SPOKANE        CLOUDY    29  26  89 SW10      29.63F WCI  20
$$

REGIONAL REPORTS...ALBERTA

CITY           SKY/WX    TMP DP  RH WIND       PRES   REMARKS
EDMONTON       PTSUNNY   21   3  45 SW2       29.61S
CALGARY        MOSUNNY   16   1  53 S5        29.51S
LETHBRIDGE     MOSUNNY   21  10  63 SW7       29.53F WCI  13
MEDICINE HAT   PTSUNNY   18   5  57 E8        29.64F WCI   7
WATERTON GATE    N/A     27  10  50 SW12G17     N/A  WCI  16
MILK RIVER       N/A     21  14  73 S17         N/A  WCI   7
$$

REGIONAL REPORTS...SASKATCHEWAN

CITY           SKY/WX    TMP DP  RH WIND       PRES   REMARKS
SWIFT CURRENT  PTSUNNY   12   5  73 S13       29.67F WCI  -3
REGINA         MOSUNNY   12   0  57 S8        29.81F WCI   1
SASKATOON      MOSUNNY   16   3  57 SW14      29.78F WCI   1
CYPRESS HILLS    N/A     10   5  79 S12         N/A  WCI  -4
VAL MARIE        N/A     19   9  63 S9          N/A  WCI   9
ROCKGLEN         N/A     12   3  67 SE6         N/A  WCI   3
$$




USA.gov is the U.S. government's official web portal to all federal, state and local government web resources and services.